Location: La Oliva
(42.2466°N, 2.9955°E)
Time: 10:12:37
(UTC+00:00)

Meteor 2-2 Rocket - Pass Details

Date: 22 April 2021
Orbit: 852 x 929 km, 81.3° (Epoch: 10 May)

Event Time Altitude Azimuth Distance (km) Brightness Sun altitude
Exits shadow 21:15:40 59° 98° (E) 1,004 4.3 -25.2°
Maximum altitude 21:15:43 59° 95° (E) 1,004 4.3 -25.2°
Drops below altitude 10° 21:21:19 10° 17° (NNE) 2,515 7.0 -25.9°
Sets 21:23:46 0° 14° (NNE) 3,448 7.9 -26.2°
